Orbital Elements at Epoch 2459200.5 (2020-Dec-17.0) TDB
Reference: JPL 22 (heliocentric ecliptic J2000)
Element | Value | Uncertainty (1-sigma) | Units |
e | .08279096569587266 | 4.5154e-08 | |
a | 2.56314781831837 | 1.1517e-08 | au |
q | 2.350942335218523 | 1.1866e-07 | au |
i | 3.008165141193727 | 4.226e-06 | deg |
node | 30.62904442850521 | 5.9946e-05 | deg |
peri | 331.7185843310997 | 6.3236e-05 | deg |
M | 104.4030408817274 | 1.9239e-05 | deg |
tp | 2458765.820104699618 (2019-Oct-09.32010470) | 7.959e-05 | TDB |
period | 1498.85253328407 4.10 | 1.0102e-05 2.766e-08 | d yr |
n | .2401837352279212 | 1.6189e-09 | deg/d |
Q | 2.775353301418217 | 1.2471e-08 | au |
|
| | Orbit Determination Parameters
Additional Information
|